Regional Weather Roundup
Issued by NWS

Home | Current Version | Previous Version | Graphics & Text | Print | Product List | Glossary On
Versions: 1 2 3 4 5 6 7 8 9 10 11 12 13 14 15 16 17 18 19 20 21 22 23 24 25 26 27 28 29 30 31 32 33 34 35 36 37 38 39 40 41 42 43 44 45 46 47 48 49 50
000
ASUS43 KOAX 280610
RWRNE

WEATHER ROUNDUP FOR NEBRASKA
NATIONAL WEATHER SERVICE OMAHA NE
100 AM CDT THU JUL 28 2016

NOTES: SATELLITE DATA IS BEING USED TO AUGMENT CLOUD COVER ABOVE
       12000 FEET.
       "FAIR" INDICATES FEW OR NO CLOUDS BELOW 12,000 FEET WITH NO
       SIGNIFICANT WEATHER AND/OR OBSTRUCTIONS TO VISIBILITY.

  * THESE STATIONS DO NOT REPORT WEATHER SUCH AS RAIN...SNOW OR FOG.

NEZ001>004-019>022-054>056-280700-
NEBRASKA PANHANDLE

CITY           SKY/WX    TMP DP  RH WIND       PRES   REMARKS
SCOTTSBLUFF    CLOUDY    68  61  78 SE12      30.14F
6HR MIN TEMP:  67; 6HR MAX TEMP:  85; 6HR PCP: TRACE;

ALLIANCE       CLOUDY    64  59  83 E8        30.15F
6HR MIN TEMP:  63; 6HR MAX TEMP:  85; 6HR PCP: TRACE;

CHADRON        CLEAR     69  60  73 S12       30.12F
6HR MIN TEMP:  69; 6HR MAX TEMP:  83;

KIMBALL        CLOUDY    64  62  94 SE23G38   30.21F VSB 1/2
SIDNEY         TSTM      67  60  78 NE14      30.28R
6HR MIN TEMP:  63; 6HR MAX TEMP:  83; 6HR PCP:  0.03;

$$

NEZ057>060-069>072-079>082-280700-
SOUTHWEST NEBRASKA

CITY           SKY/WX    TMP DP  RH WIND       PRES   REMARKS
NORTH PLATTE   PTCLDY    66  60  81 NE9       30.11F
6HR MIN TEMP:  66; 6HR MAX TEMP:  85;

IMPERIAL       CLEAR     70  65  84 NE9       30.14R
6HR MIN TEMP:  70; 6HR MAX TEMP:  88;

LEXINGTON      CLEAR     67  62  82 NE9       30.08F
MCCOOK         CLOUDY    72  67  84 E5        30.08F
6HR MIN TEMP:  71; 6HR MAX TEMP:  88;

OGALLALA       CLOUDY    69  57  65 E6        30.15S
$$

NEZ005>010-023>029-035>040-094-280700-
NORTH CENTRAL NEBRASKA

CITY           SKY/WX    TMP DP  RH WIND       PRES   REMARKS
VALENTINE      CLOUDY    60  57  89 MISG      30.12F
6HR MIN TEMP:  60; 6HR MAX TEMP:  76; 6HR PCP:  0.01;

AINSWORTH      CLEAR     60  58  93 W5        30.11S
BROKEN BOW     CLEAR     64  60  87 VRB3      30.09F
6HR MIN TEMP:  61; 6HR MAX TEMP:  83; 6HR PCP:  0.03;

O`NEILL        PTCLDY    65  62  90 N8        30.07R
ORD            PTCLDY    63  60  90 CALM      30.06F
6HR MIN TEMP:  63; 6HR MAX TEMP:  80;

THEDFORD       CLEAR     61  59  94 NW3       30.14F
$$

NEZ041-046>049-061>064-073>077-083>087-280700-
SOUTH CENTRAL NEBRASKA

CITY           SKY/WX    TMP DP  RH WIND       PRES   REMARKS
GRAND ISLAND   CLEAR     67  61  81 N6        30.07R
6HR MIN TEMP:  67; 6HR MAX TEMP:  85;

AURORA         PTCLDY    68  65  90 N5        30.06R
HASTINGS       CLEAR     70  66  87 CALM      30.06F
6HR MIN TEMP:  70; 6HR MAX TEMP:  84;

HEBRON         CLEAR     74  66  77 NE3       30.02F
HOLDREGE       CLEAR     68  65  90 NE7       30.07F
KEARNEY *      CLEAR     68  10  10 N12       30.08F
YORK           CLEAR     68  64  88 N5        30.05R
$$

NEZ011>018-030>034-042>045-280700-
NORTHEAST NEBRASKA

CITY           SKY/WX    TMP DP  RH WIND       PRES   REMARKS
NORFOLK        MOCLDY    68  65  90 W6        30.04S
6HR MIN TEMP:  67; 6HR MAX TEMP:  83; 6HR PCP:  0.01;

ALBION         CLOUDY    66  61  83 N5        30.05S
BLAIR          CLOUDY    76  67  74 N9        29.98F
FREMONT        CLOUDY    69  63  81 W7        30.01S
TEKAMAH        LGT RAIN  73  66  78 N7        29.99S
6HR MIN TEMP:  73; 6HR MAX TEMP:  86; 6HR PCP: TRACE;

WAYNE          CLOUDY    67  65  91 CALM      30.04R
$$

NEZ050>053-065>068-078-088>093-280700-
SOUTHEAST NEBRASKA

CITY           SKY/WX    TMP DP  RH WIND       PRES   REMARKS
LINCOLN        CLEAR     72  67  84 CALM      30.01S
6HR MIN TEMP:  72; 6HR MAX TEMP:  87;

OMAHA EPPLEY   CLOUDY    75  68  78 NE6       29.97F
6HR MIN TEMP:  73; 6HR MAX TEMP:  85;

BEATRICE       CLEAR     70  67  91 N5        30.00F
FALLS CITY     CLEAR     73  71  93 NW5       29.97S
6HR MIN TEMP:  72; 6HR MAX TEMP:  88;

NEBRASKA CITY  CLEAR     72  72 100 CALM      29.99S
PLATTSMOUTH    PTCLDY    72  70  94 W3        29.98F
$$

NEZ044-045-051>053-067-280700-
OMAHA AREA

CITY           SKY/WX    TMP DP  RH WIND       PRES   REMARKS
OMAHA EPPLEY   CLOUDY    75  68  78 NE6       29.97F
6HR MIN TEMP:  73; 6HR MAX TEMP:  85;

BLAIR          CLOUDY    76  67  74 N9        29.98F
FREMONT        CLOUDY    69  63  81 W7        30.01S
MILLARD        CLOUDY    77  67  69 NW3       29.98F
OFFUTT AFB     CLOUDY    74  71  90 NW1       29.97S
PLATTSMOUTH    PTCLDY    72  70  94 W3        29.98F
WAHOO          FAIR      70  66  88 N5        30.01R
$$




USA.gov is the U.S. government's official web portal to all federal, state and local government web resources and services.